Date String (YYYY-MM-DD hh:mm:ss) UTC,Instrument flags,Ambient pressure (hPa),Sample flow (lpm),Bypass flow (lpm),Sample temperature (°C),Ambient temperature (°C),ASC tube jacket temperature (°C),LED temperature (°C),Box temperature (°C),Sample RH (%),Span deviation,Mass concentration (μg/m³),Mass concentration (μg/m³),Mass concentration (μg/m³)
DateTimeUTC,F1_M11,P_M11,Q1_M11,Q2_M11,T1_M11,T2_M11,T3_M11,T4_M11,T5_M11,U1_M11,ZSPAN_M11,X0_M11,X2_M11,X1_M11
2021-08-24 05:00:00,,0826.2,5.00,0.00,29.6,28.7,00.0,38.6,31.5,09.7,0000.0,0002.68,0001.64,0001.45
2021-08-24 05:01:00,,0826.2,5.01,0.00,29.6,28.8,00.0,38.6,31.5,09.7,0000.0,0003.07,0001.61,0001.43
2021-08-24 05:02:00,,0826.2,4.99,0.00,29.7,28.2,00.0,38.6,31.4,09.6,0000.0,0003.32,0001.60,0001.42
2021-08-24 05:03:00,,0826.2,5.00,0.00,29.5,26.6,00.0,38.6,31.0,10.0,0000.0,0003.36,0001.61,0001.43
2021-08-24 05:04:00,,0826.2,5.00,0.00,29.5,26.5,00.0,38.6,30.9,10.1,0000.0,0003.46,0001.62,0001.44
2021-08-24 05:05:00,,0826.2,5.00,0.00,29.4,26.8,00.0,38.6,30.9,10.2,0000.0,0003.54,0001.66,0001.45
2021-08-24 05:06:00,,0826.2,5.01,0.00,29.4,27.2,00.0,38.5,31.0,10.3,0000.0,0004.40,0001.70,0001.48
2021-08-24 05:07:00,,0826.2,4.99,0.00,29.4,27.6,00.0,38.5,31.1,10.3,0000.0,0004.76,0001.75,0001.50
2021-08-24 05:08:00,,0826.2,5.01,0.00,29.4,27.9,00.0,38.5,31.2,10.2,0000.0,0005.66,0001.81,0001.52
2021-08-24 05:09:00,,0826.1,5.00,0.00,29.4,28.1,00.0,38.5,31.2,10.4,0000.0,0006.24,0001.86,0001.54
2021-08-24 05:10:00,,0826.2,4.99,0.00,29.5,28.3,00.0,38.5,31.3,10.3,0000.0,0006.36,0001.92,0001.57
2021-08-24 05:11:00,,0826.2,5.00,0.00,29.5,28.4,00.0,38.5,31.4,10.2,0000.0,0005.83,0001.92,0001.58
2021-08-24 05:12:00,,0826.2,5.01,0.00,29.5,28.6,00.0,38.6,31.4,10.0,0000.0,0005.44,0001.95,0001.58
2021-08-24 05:13:00,,0826.1,5.00,0.00,29.6,28.7,00.0,38.6,31.4,10.1,0000.0,0005.21,0001.98,0001.61
2021-08-24 05:14:00,,0826.1,5.01,0.00,29.6,28.8,00.0,38.6,31.5,09.8,0000.0,0005.81,0001.96,0001.60
2021-08-24 05:15:00,,0826.2,4.99,0.00,29.7,28.8,00.0,38.6,31.5,09.4,0000.0,0005.87,0001.91,0001.58
2021-08-24 05:16:00,,0826.2,5.00,0.00,29.7,27.9,00.0,38.6,31.3,09.1,0000.0,0005.81,0001.85,0001.53
2021-08-24 05:17:00,,0826.2,5.01,0.00,29.5,26.4,00.0,38.6,30.9,09.2,0000.0,0004.92,0001.80,0001.49
2021-08-24 05:18:00,,0826.2,4.99,0.00,29.4,26.5,00.0,38.6,30.9,09.4,0000.0,0004.60,0001.74,0001.46
2021-08-24 05:19:00,,0826.1,5.00,0.00,29.4,26.8,00.0,38.6,30.9,09.3,0000.0,0003.87,0001.70,0001.42
2021-08-24 05:20:00,,0826.1,4.99,0.00,29.4,27.2,00.0,38.5,31.0,09.2,0000.0,0003.18,0001.65,0001.39
2021-08-24 05:21:00,,0826.2,5.01,0.00,29.4,27.6,00.0,38.5,31.1,09.4,0000.0,0003.06,0001.58,0001.35
2021-08-24 05:22:00,,0826.2,4.98,0.00,29.4,27.8,00.0,38.5,31.2,10.0,0000.0,0003.09,0001.57,0001.33
2021-08-24 05:23:00,,0826.2,5.01,0.00,29.4,28.1,00.0,38.5,31.2,09.9,0000.0,0003.02,0001.55,0001.31
2021-08-24 05:24:00,,0826.2,5.01,0.00,29.5,28.3,00.0,38.5,31.3,09.9,0000.0,0002.88,0001.50,0001.29
2021-08-24 05:25:00,,0826.2,4.99,0.00,29.5,28.4,00.0,38.5,31.3,09.9,0000.0,0002.45,0001.53,0001.30
2021-08-24 05:26:00,,0826.2,5.00,0.00,29.5,28.5,00.0,38.5,31.4,09.9,0000.0,0002.27,0001.57,0001.32
2021-08-24 05:27:00,,0826.2,5.00,0.00,29.6,28.7,00.0,38.6,31.4,09.9,0000.0,0002.32,0001.62,0001.35
2021-08-24 05:28:00,,0826.2,5.00,0.00,29.6,28.8,00.0,38.6,31.5,09.9,0000.0,0002.37,0001.66,0001.38
2021-08-24 05:29:00,,0826.2,5.00,0.00,29.7,28.8,00.0,38.6,31.5,09.8,0000.0,0002.49,0001.72,0001.39
2021-08-24 05:30:00,,0826.2,5.00,0.00,29.7,28.9,00.0,38.6,31.6,09.8,0000.0,0002.56,0001.75,0001.42
2021-08-24 05:31:00,,0826.2,5.00,0.00,29.7,27.9,00.0,38.6,31.3,09.7,0000.0,0002.71,0001.79,0001.45
2021-08-24 05:32:00,,0826.2,5.00,0.00,29.6,26.5,00.0,38.6,30.9,09.7,0000.0,0002.78,0001.83,0001.47
2021-08-24 05:33:00,,0826.1,5.00,0.00,29.5,26.6,00.0,38.6,31.0,09.6,0000.0,0002.82,0001.86,0001.48
2021-08-24 05:34:00,,0826.2,5.00,0.00,29.4,26.9,00.0,38.6,31.0,09.4,0000.0,0002.83,0001.87,0001.49
2021-08-24 05:35:00,,0826.2,5.01,0.00,29.4,27.3,00.0,38.6,31.1,09.4,0000.0,0002.95,0001.88,0001.48
2021-08-24 05:36:00,,0826.2,5.00,0.00,29.4,27.6,00.0,38.6,31.1,09.5,0000.0,0002.96,0001.88,0001.47
2021-08-24 05:37:00,,0826.2,4.99,0.00,29.5,27.9,00.0,38.5,31.2,09.7,0000.0,0002.95,0001.87,0001.45
2021-08-24 05:38:00,,0826.2,5.00,0.00,29.5,28.1,00.0,38.6,31.3,09.7,0000.0,0002.90,0001.84,0001.43
2021-08-24 05:39:00,,0826.2,5.00,0.00,29.5,28.3,00.0,38.6,31.3,09.5,0000.0,0002.88,0001.82,0001.42
2021-08-24 05:40:00,,0826.2,4.99,0.00,29.6,28.5,00.0,38.6,31.4,09.6,0000.0,0002.76,0001.77,0001.41
2021-08-24 05:41:00,,0826.2,4.98,0.00,29.6,28.6,00.0,38.6,31.4,09.3,0000.0,0002.75,0001.72,0001.39
2021-08-24 05:42:00,,0826.2,5.02,0.00,29.6,28.7,00.0,38.6,31.5,09.3,0000.0,0002.81,0001.67,0001.37
2021-08-24 05:43:00,,0826.2,5.01,0.00,29.7,28.8,00.0,38.6,31.5,09.5,0000.0,0002.72,0001.63,0001.36
2021-08-24 05:44:00,,0826.2,4.99,0.00,29.7,28.9,00.0,38.7,31.5,09.8,0000.0,0002.70,0001.62,0001.35
2021-08-24 05:45:00,,0826.2,5.01,0.00,29.7,28.9,00.0,38.7,31.6,09.6,0000.0,0002.69,0001.61,0001.34
2021-08-24 05:46:00,,0826.2,5.00,0.00,29.7,27.8,00.0,38.7,31.3,09.5,0000.0,0003.02,0001.62,0001.35
2021-08-24 05:47:00,,0826.2,5.00,0.00,29.6,25.8,00.0,38.6,30.8,09.5,0000.0,0002.99,0001.62,0001.35
2021-08-24 05:48:00,,0826.2,5.00,0.00,29.4,25.6,00.0,38.6,30.7,09.7,0000.0,0003.84,0001.60,0001.35
2021-08-24 05:49:00,,0826.2,4.99,0.00,29.3,26.0,00.0,38.6,30.7,09.7,0000.0,0004.95,0001.61,0001.35
2021-08-24 05:50:00,,0826.2,5.00,0.00,29.3,26.5,00.0,38.5,30.8,09.8,0000.0,0004.97,0001.63,0001.36
2021-08-24 05:51:00,,0826.2,4.99,0.00,29.3,27.0,00.0,38.5,30.9,10.0,0000.0,0004.97,0001.62,0001.36
2021-08-24 05:52:00,,0826.2,5.01,0.00,29.3,27.3,00.0,38.5,31.0,10.0,0000.0,0004.91,0001.63,0001.35
2021-08-24 05:53:00,,0826.2,5.01,0.00,29.3,27.6,00.0,38.5,31.0,10.0,0000.0,0004.58,0001.62,0001.35
2021-08-24 05:54:00,,0826.2,4.98,0.00,29.3,27.9,00.0,38.5,31.1,10.2,0000.0,0005.63,0001.63,0001.34
2021-08-24 05:55:00,,0826.3,5.01,0.00,29.4,28.1,00.0,38.5,31.2,09.9,0000.0,0005.72,0001.63,0001.34
2021-08-24 05:56:00,,0826.2,5.00,0.00,29.4,28.2,00.0,38.5,31.2,09.8,0000.0,0005.84,0001.65,0001.34
2021-08-24 05:57:00,,0826.2,5.00,0.00,29.4,28.4,00.0,38.5,31.3,09.8,0000.0,0005.56,0001.65,0001.34
2021-08-24 05:58:00,,0826.2,4.99,0.00,29.5,28.5,00.0,38.5,31.3,09.9,0000.0,0005.66,0001.66,0001.34
2021-08-24 05:59:00,,0826.3,5.00,0.00,29.5,28.6,00.0,38.5,31.4,10.0,0000.0,0005.57,0001.69,0001.35
